Find Starlink 35148

NORAD ID: 65844 Int'l Des: 2025-221 Owner: SPXS Country: US Constellation: starlink operational
LEOCIRCULAR

当前视图

正在加载3D地球...

About Starlink 35148

Starlink 35148 (NORAD 65844) is a starlink constellation satellite (v2 mini) launched Sep 29, 2025 by SPXS of US. It operates in LEO, CIRCULAR orbit with a mass of 575.00 kg.

即将过境

Passes for default location (London). Set your location on the main map for personalized predictions.

高度历史

Loading altitude history...

两行轨道根数

1 65844U 25221X 26263.02737932 .00021738 00000-0 65239-3 0 9990
2 65844 53.1578 261.6736 0001538 82.6088 277.5089 15.34411773 54540
Epoch: Sep 20, 2026 • Age: 17 hours

当前状态

高度 481.9 km
远地点 / 近地点 N/A
速度 7.62 km/s
星下点 -52.67°S, 81.33°W
发射日期 Sep 29, 2025
运行时间 0.9 years
类型 internet

技术详情

分类 Payload
质量 575.00 kg
干质量 530.00 kg
长度 0.30 m
跨度 29.00 m
形状 ? Box + pan
制造商 SPXS
平台类型 Starlink V2MO
阶段状态 In Orbit
所有者/国家 SPXS/US

Most Searched